Location: Anciles
(42.5833°N, 0.5167°E)
Time: 21:57:41
(UTC+00:00)

Lacrosse 5 rocket - Pass Details

Date: 10 December 2019
Orbit: 465 x 632 km, 57.0° (Epoch: 29 January)

Event Time Altitude Azimuth Distance (km) Brightness Sun altitude
Rises 18:36:29 0° 279° (W) 2,780 6.1 -23.5°
Reaches altitude 10° 18:39:36 10° 302° (WNW) 1,845 4.6 -24.0°
Maximum altitude 18:42:07 15° 339° (NNW) 1,498 3.6 -24.5°
Enters shadow 18:42:25 15° 345° (NNW) 1,500 3.6 -24.5°
